Simultaneous Nadir Overpasses (SNOs) Predictions

Prediction of SNOs between LANDSAT-8 and NOAA-19 Satellite Orbit:

Table of predicted SNOs for the next 14.0 days since TLE Epoch: 9/21/2024
Index Date (LANDSAT-8) Time (LANDSAT-8) Lat,Lon (LANDSAT-8) SZA (LANDSAT-8 ) Date (NOAA-19) Time (NOAA-19) Lat,Lon (NOAA-19) SZA (NOAA-19 ) Distance(km) Time Diff (sec)
1 09/22/2024 05:15:46 -80.47, -47.07 98.09 09/22/2024 05:15:21 -80.45, -47.23 98.12 3.30 25
2 09/22/2024 06:05:11 80.50, 120.92 81.99 09/22/2024 06:06:12 80.50, 120.86 82.01 1.15 61
3 09/24/2024 11:38:56 -80.44,-143.17 97.24 09/24/2024 11:38:02 -80.43,-143.19 97.27 0.58 54
4 09/24/2024 12:28:19 80.50, 25.12 82.89 09/24/2024 12:28:51 80.49, 25.17 82.90 1.02 32
5 09/26/2024 18:51:28 80.47, -70.92 83.74 09/26/2024 18:51:32 80.47, -70.95 83.73 1.13 4
6 09/29/2024 01:14:37 80.43,-167.17 84.55 09/29/2024 01:14:13 80.43,-167.16 84.55 0.43 24
7 09/29/2024 02:04:02 -80.49, 1.12 95.33 09/29/2024 02:05:14 -80.50, 1.23 95.28 2.16 72
8 10/01/2024 07:37:44 80.42, 96.99 85.43 10/01/2024 07:36:53 80.41, 96.88 85.39 2.33 51
9 10/01/2024 08:27:10 -80.45, -95.03 94.50 10/01/2024 08:27:55 -80.46, -95.08 94.48 1.00 45



Historial Predications of SNOs between LANDSAT-8 and NOAA-19
